EW6819 Weather Reports


Display with metric or nautical units.
time (UTC)temp
F
wind
direction
speed
MPH
gust
MPH
rain 1hr
in
rain 24hr
in
rain mn
in
humidity
%
barometer
mb
20260905130003 65 299 5.0 10.0 0.00 0.00 0.00 57 1014.4
20260905125503 65 324 4.0 9.0 0.00 0.00 0.00 58 1014.4
20260905125003 65 345 4.0 9.0 0.00 0.00 0.00 58 1014.4
20260905124503 64 307 3.0 9.0 0.00 0.00 0.00 58 1014.4
20260905124003 64 283 3.0 8.0 0.00 0.00 0.00 58 1014.7
20260905123712 64 291 2.0 8.0 0.00 0.00 0.00 57 1014.9
20260905123003 64 73 2.0 6.0 0.00 0.00 0.00 57 1014.9
20260905122503 64 50 2.0 5.0 0.00 0.00 0.00 56 1014.9
20260905122003 63 357 2.0 8.0 0.00 0.00 0.00 56 1014.9
20260905121503 63 320 2.0 8.0 0.00 0.00 0.00 56 1014.8
20260905121003 62 291 2.0 7.0 0.00 0.00 0.00 56 1014.8
20260905120503 62 291 2.0 7.0 0.00 0.00 0.00 56 1014.6
20260905120213 62 294 2.0 7.0 0.00 0.00 0.00 57 1014.7
20260905115503 61 333 2.0 8.0 0.00 0.00 0.00 59 1014.5
20260905115003 61 330 1.0 8.0 0.00 0.00 0.00 60 1014.4
20260905114714 60 333 1.0 4.0 0.00 0.00 0.00 60 1014.4
20260905114213 60 330 1.0 4.0 0.00 0.00 0.00 60 1014.3
20260905113503 59 310 1.0 6.0 0.00 0.00 0.00 59 1014.2
20260905113213 59 302 1.0 6.0 0.00 0.00 0.00 59 1014.0
20260905112503 59 296 1.0 3.0 0.00 0.00 0.00 59 1014.0
20260905112003 59 297 1.0 3.0 0.00 0.00 0.00 59 1014.0
20260905111503 58 298 1.0 3.0 0.00 0.00 0.00 59 1013.9
20260905111003 58 300 2.0 4.0 0.00 0.00 0.00 58 1013.8
20260905110503 58 307 2.0 4.0 0.00 0.00 0.00 58 1013.8
20260905110003 58 314 2.0 3.0 0.00 0.00 0.00 58 1013.7
20260905105503 58 315 2.0 3.0 0.00 0.00 0.00 58 1013.9
20260905105003 58 315 1.0 3.0 0.00 0.00 0.00 58 1013.9
20260905104503 58 314 1.0 4.0 0.00 0.00 0.00 57 1013.9
20260905104003 59 285 2.0 6.0 0.00 0.00 0.00 57 1013.8
20260905103503 58 268 3.0 6.0 0.00 0.00 0.00 58 1013.8
20260905103003 58 263 3.0 6.0 0.00 0.00 0.00 58 1013.8
20260905102503 58 262 3.0 6.0 0.00 0.00 0.00 58 1013.9
20260905102003 58 263 2.0 6.0 0.00 0.00 0.00 58 1013.8
20260905101713 58 261 2.0 4.0 0.00 0.00 0.00 58 1013.7
20260905101003 58 256 1.0 4.0 0.00 0.00 0.00 58 1013.6
20260905100503 58 257 0.0 3.0 0.00 0.00 0.00 58 1013.6
20260905100003 58 257 1.0 3.0 0.00 0.00 0.00 57 1013.5
20260905095503 58 257 1.0 3.0 0.00 0.00 0.00 57 1013.4
20260905095214 58 257 1.0 3.0 0.00 0.00 0.00 57 1013.4
20260905094503 59 266 2.0 5.0 0.00 0.00 0.00 57 1013.5
20260905094003 59 271 2.0 4.0 0.00 0.00 0.00 57 1013.5
20260905093503 59 264 2.0 4.0 0.00 0.00 0.00 57 1013.4
20260905093003 59 260 2.0 4.0 0.00 0.00 0.00 57 1013.5
20260905092503 59 268 2.0 6.0 0.00 0.00 0.00 57 1013.4
20260905092212 59 276 2.0 6.0 0.00 0.00 0.00 57 1013.3
20260905091503 59 300 1.0 3.0 0.00 0.00 0.00 57 1013.3
20260905091003 59 300 0.0 2.0 0.00 0.00 0.00 57 1013.2
20260905090503 59 300 1.0 2.0 0.00 0.00 0.00 57 1013.2
20260905090003 59 300 0.0 2.0 0.00 0.00 0.00 57 1013.3
20260905085503 60 299 0.0 3.0 0.00 0.00 0.00 57 1013.3
20260905085003 60 296 1.0 4.0 0.00 0.00 0.00 56 1013.3
20260905084503 60 304 2.0 5.0 0.00 0.00 0.00 57 1013.4
20260905084214 60 303 2.0 5.0 0.00 0.00 0.00 57 1013.3
20260905083503 60 306 2.0 4.0 0.00 0.00 0.00 57 1013.3
20260905083003 60 310 1.0 4.0 0.00 0.00 0.00 57 1013.4
20260905082503 60 297 1.0 4.0 0.00 0.00 0.00 58 1013.3
20260905082003 61 290 1.0 4.0 0.00 0.00 0.00 58 1013.4
20260905081503 61 282 1.0 4.0 0.00 0.00 0.00 58 1013.3
20260905081003 61 291 1.0 4.0 0.00 0.00 0.00 58 1013.5
20260905080503 61 307 2.0 4.0 0.00 0.00 0.00 58 1013.5
20260905080003 61 292 2.0 4.0 0.00 0.00 0.00 58 1013.6
20260905075503 61 292 2.0 4.0 0.00 0.00 0.00 58 1013.6
20260905075003 60 307 2.0 4.0 0.00 0.00 0.00 58 1013.7
20260905074713 60 304 2.0 4.0 0.00 0.00 0.00 58 1013.6
20260905074003 60 301 1.0 4.0 0.00 0.00 0.00 58 1013.7
20260905073503 60 292 0.0 2.0 0.00 0.00 0.00 59 1013.6
20260905073003 61 292 1.0 3.0 0.00 0.00 0.00 59 1013.7
20260905072503 61 292 1.0 3.0 0.00 0.00 0.00 59 1013.8
20260905072003 61 292 1.0 3.0 0.00 0.00 0.00 60 1013.7
20260905071503 61 292 2.0 3.0 0.00 0.00 0.00 60 1013.6
20260905071003 62 292 2.0 3.0 0.00 0.00 0.00 61 1013.8
20260905070503 62 298 1.0 3.0 0.00 0.00 0.00 62 1013.8
20260905070213 62 305 0.0 3.0 0.00 0.00 0.00 63 1013.8
20260905065503 62 0 0.0 0.0 0.00 0.00 0.00 63 1013.9
20260905065003 62 0 0.0 0.0 0.00 0.00 0.00 63 1013.9
20260905064503 62 0 0.0 0.0 0.00 0.00 0.00 64 1014.0
20260905064003 62 0 0.0 0.0 0.00 0.00 0.00 63 1014.1
20260905063503 63 42 0.0 1.0 0.00 0.00 0.00 63 1014.0
20260905063003 63 42 0.0 2.0 0.00 0.00 0.00 62 1014.1
20260905062714 63 42 0.0 2.0 0.00 0.00 0.00 62 1014.1
20260905062003 63 43 0.0 2.0 0.00 0.00 0.00 62 1014.2
20260905061503 63 0 0.0 0.0 0.00 0.00 0.00 62 1014.2
20260905061003 63 44 0.0 1.0 0.00 0.00 0.00 62 1014.3
20260905060503 63 44 0.0 3.0 0.00 0.00 0.00 62 1014.1
20260905060003 63 41 1.0 3.0 0.00 0.00 0.00 61 1014.2
20260905055503 64 293 1.0 6.0 0.00 0.00 0.00 61 1014.2
20260905055003 64 267 2.0 7.0 0.00 0.00 0.00 62 1014.2
20260905054503 64 266 3.0 8.0 0.00 0.00 0.00 61 1014.1
20260905054003 64 266 4.0 9.0 0.00 0.00 0.00 61 1014.1
20260905053714 63 264 4.0 9.0 0.00 0.00 0.00 62 1014.2
20260905053003 63 264 3.0 8.0 0.00 0.00 0.00 62 1014.3
20260905052503 63 265 3.0 8.0 0.00 0.00 0.00 61 1014.3
20260905052003 63 269 3.0 7.0 0.00 0.00 0.00 61 1014.2
20260905051503 63 272 3.0 9.0 0.00 0.00 0.00 61 1014.2
20260905051003 63 272 3.0 9.0 0.00 0.00 0.00 61 1014.3
20260905050503 63 269 3.0 8.0 0.00 0.00 0.00 61 1014.3
20260905050003 63 264 3.0 6.0 0.00 0.00 0.00 62 1014.3
20260905045714 63 265 3.0 7.0 0.00 0.00 0.00 62 1014.3
20260905045212 63 270 3.0 7.0 0.00 0.00 0.00 62 1014.3
20260905044503 63 286 2.0 6.0 0.00 0.00 0.00 61 1014.3
20260905044003 63 278 2.0 7.0 0.00 0.00 0.00 60 1014.2
20260905043504 63 264 3.0 7.0 0.00 0.00 0.00 60 1014.3
20260905043003 64 264 3.0 7.0 0.00 0.00 0.00 60 1014.3
20260905042503 64 263 3.0 7.0 0.00 0.00 0.00 60 1014.3
20260905042003 64 259 3.0 7.0 0.00 0.00 0.00 59 1014.2
20260905041503 64 260 3.0 7.0 0.00 0.00 0.00 59 1014.0
20260905041003 64 265 3.0 8.0 0.00 0.00 0.00 59 1014.2
20260905040713 64 265 3.0 8.0 0.00 0.00 0.00 59 1014.2
20260905040003 64 266 3.0 8.0 0.00 0.00 0.00 58 1014.2
20260905035503 64 263 3.0 7.0 0.00 0.00 0.00 58 1014.4
20260905035003 64 260 3.0 7.0 0.00 0.00 0.00 59 1014.4
20260905034503 64 260 3.0 7.0 0.00 0.00 0.00 59 1014.3
20260905034214 64 262 3.0 7.0 0.00 0.00 0.00 59 1014.4
20260905033503 64 263 3.0 7.0 0.00 0.00 0.00 59 1014.3
20260905033003 64 263 2.0 5.0 0.00 0.00 0.00 60 1014.4
20260905032503 64 264 2.0 7.0 0.00 0.00 0.00 59 1014.4
20260905032003 64 265 3.0 8.0 0.00 0.00 0.00 59 1014.4
20260905031503 64 263 3.0 8.0 0.00 0.00 0.00 59 1014.4
20260905031003 64 261 3.0 7.0 0.00 0.01 0.00 60 1014.3
20260905030503 64 263 2.0 7.0 0.00 0.01 0.00 61 1014.3
20260905030003 64 265 2.0 6.0 0.00 0.02 0.00 60 1014.2
20260905025503 64 266 2.0 6.0 0.00 0.03 0.00 60 1014.2
20260905025214 64 265 2.0 6.0 0.00 0.03 0.00 60 1014.2
20260905024503 64 261 2.0 4.0 0.00 0.06 0.00 61 1014.3
20260905024214 65 261 2.0 6.0 0.00 0.06 0.00 62 1014.3
20260905023713 65 265 2.0 6.0 0.00 0.06 0.00 61 1014.3
20260905023003 65 265 2.0 7.0 0.00 0.07 0.00 60 1014.4
20260905022503 65 262 3.0 7.0 0.00 0.07 0.00 59 1014.4
20260905022003 65 264 3.0 6.0 0.00 0.08 0.00 60 1014.2
20260905021503 65 266 2.0 6.0 0.00 0.09 0.00 60 1014.3
20260905021003 66 267 2.0 6.0 0.00 0.10 0.00 60 1014.2
20260905020503 66 266 3.0 7.0 0.00 0.12 0.00 60 1014.3
20260905020003 66 263 2.0 7.0 0.00 0.14 0.00 59 1014.3
20260905015503 66 265 2.0 4.0 0.00 0.14 0.00 59 1014.1
20260905015003 66 265 1.0 4.0 0.00 0.15 0.00 60 1014.2
20260905014503 66 264 1.0 3.0 0.00 0.15 0.00 59 1014.1
20260905014003 66 263 1.0 3.0 0.00 0.15 0.00 59 1014.1
20260905013503 67 265 1.0 6.0 0.00 0.15 0.00 60 1014.2
20260905013003 67 264 2.0 6.0 0.00 0.15 0.00 59 1014.2
20260905012503 67 264 1.0 6.0 0.00 0.15 0.00 60 1014.3
20260905012003 67 268 1.0 6.0 0.00 0.15 0.00 59 1014.2
20260905011503 67 271 1.0 4.0 0.00 0.15 0.00 60 1014.4
20260905011003 67 267 2.0 6.0 0.00 0.16 0.00 59 1014.5
20260905010503 67 265 2.0 6.0 0.00 0.16 0.00 59 1014.5
20260905010003 67 262 1.0 4.0 0.00 0.16 0.00 60 1014.6
20260905005503 67 271 1.0 4.0 0.00 0.16 0.00 60 1014.7
20260905005003 66 277 1.0 6.0 0.00 0.16 0.00 61 1014.6
20260905004503 66 267 1.0 6.0 0.00 0.16 0.00 62 1014.6
20260905004003 66 272 0.0 3.0 0.00 0.16 0.00 63 1014.5
20260905003503 67 272 0.0 3.0 0.00 0.16 0.00 63 1014.5
20260905003213 67 272 0.0 3.0 0.00 0.16 0.00 63 1014.5
20260905002503 67 0 0.0 0.0 0.00 0.16 0.00 62 1014.5
20260905002213 67 0 0.0 0.0 0.00 0.16 0.00 62 1014.5
20260905001503 67 271 0.0 1.0 0.00 0.16 0.00 62 1014.4
20260905001003 67 271 1.0 3.0 0.00 0.16 0.00 61 1014.4
20260905000503 67 271 1.0 3.0 0.00 0.16 0.00 62 1014.3
20260905000003 67 272 2.0 4.0 0.00 0.16 0.00 61 1014.2
20260904235503 68 267 2.0 4.0 0.00 0.16 0.00 62 1014.2
20260904235003 68 268 1.0 4.0 0.00 0.16 0.00 61 1014.3
20260904234503 68 279 1.0 4.0 0.00 0.16 0.00 61 1014.1
20260904234003 68 275 1.0 4.0 0.00 0.16 0.00 61 1014.0
20260904233713 68 270 1.0 4.0 0.00 0.16 0.00 60 1013.9
20260904233003 68 261 2.0 4.0 0.00 0.16 0.00 60 1013.9
20260904232503 68 258 1.0 4.0 0.00 0.16 0.00 59 1013.9
20260904232003 68 258 1.0 6.0 0.00 0.16 0.00 59 1013.8
20260904231503 69 262 2.0 6.0 0.00 0.16 0.00 58 1013.8
20260904231003 69 261 2.0 6.0 0.00 0.16 0.00 58 1013.9
20260904230503 69 260 2.0 6.0 0.00 0.16 0.00 58 1013.8
20260904230214 69 262 1.0 6.0 0.00 0.16 0.00 57 1013.8
20260904225503 70 267 2.0 6.0 0.00 0.16 0.00 57 1013.8
20260904225003 70 266 2.0 6.0 0.00 0.16 0.00 56 1013.8
20260904224503 70 270 1.0 4.0 0.00 0.16 0.00 56 1013.7
20260904224212 70 272 1.0 4.0 0.00 0.16 0.00 56 1013.8
20260904223503 70 266 1.0 4.0 0.00 0.16 0.00 56 1013.7
20260904223003 70 264 2.0 4.0 0.00 0.16 0.00 57 1013.6
20260904222713 70 265 1.0 4.0 0.00 0.16 0.00 57 1013.4
20260904222003 71 267 1.0 6.0 0.00 0.16 0.00 55 1013.4
20260904221503 71 286 1.0 4.0 0.00 0.16 0.00 55 1013.3
20260904221214 71 285 1.0 4.0 0.00 0.16 0.00 55 1013.3
20260904220503 71 278 2.0 6.0 0.00 0.16 0.00 55 1013.3
20260904220003 71 270 2.0 8.0 0.00 0.16 0.00 56 1013.2
20260904215503 71 271 2.0 8.0 0.00 0.16 0.00 54 1013.2
20260904215003 71 278 1.0 3.0 0.00 0.16 0.00 55 1013.3
20260904214713 71 273 1.0 3.0 0.00 0.16 0.00 54 1013.3
20260904214214 72 285 1.0 6.0 0.00 0.16 0.00 55 1013.3
20260904213503 72 273 3.0 8.0 0.00 0.16 0.00 53 1013.2
20260904213214 72 269 3.0 8.0 0.00 0.16 0.00 53 1013.3
20260904212503 72 272 1.0 8.0 0.00 0.16 0.00 51 1013.4
20260904212108 72 278 1.0 8.0 0.00 0.16 0.00 53 1013.3
20260904211503 72 270 2.0 7.0 0.00 0.16 0.00 52 1013.6
20260904211003 73 280 2.0 7.0 0.00 0.16 0.00 50 1013.6
20260904210503 73 287 2.0 7.0 0.00 0.16 0.00 50 1013.6
20260904210003 73 276 1.0 7.0 0.00 0.16 0.00 51 1013.7
20260904205503 73 278 2.0 7.0 0.00 0.16 0.00 51 1013.8
20260904205003 73 293 2.0 6.0 0.00 0.16 0.00 50 1013.8
20260904204712 73 301 2.0 9.0 0.00 0.16 0.00 51 1013.8
20260904204003 74 288 2.0 9.0 0.00 0.16 0.00 47 1013.8
20260904203503 74 269 3.0 9.0 0.00 0.16 0.00 49 1013.9
20260904203003 74 261 3.0 9.0 0.00 0.16 0.00 47 1013.9
20260904202503 74 258 3.0 10.0 0.00 0.16 0.00 47 1013.8
20260904202003 74 265 2.0 10.0 0.00 0.16 0.00 49 1013.8
20260904201503 74 280 2.0 8.0 0.00 0.16 0.00 48 1013.9
20260904201003 74 269 4.0 13.0 0.00 0.16 0.00 48 1014.0
20260904200503 73 265 5.0 13.0 0.00 0.16 0.00 50 1014.0
20260904200003 73 269 5.0 13.0 0.00 0.16 0.00 48 1013.9
20260904195714 73 265 5.0 13.0 0.00 0.16 0.00 49 1014.1
20260904195003 73 255 4.0 13.0 0.00 0.16 0.00 50 1014.3
20260904194503 74 260 4.0 13.0 0.00 0.16 0.00 49 1014.3
20260904194003 74 266 5.0 13.0 0.00 0.16 0.00 49 1014.3
20260904193714 74 266 5.0 13.0 0.00 0.16 0.00 48 1014.4
20260904193003 74 271 3.0 8.0 0.00 0.16 0.00 52 1014.4
20260904192714 73 268 3.0 10.0 0.00 0.16 0.00 50 1014.4
20260904192213 73 258 4.0 13.0 0.00 0.16 0.00 49 1014.4
20260904191503 74 256 3.0 14.0 0.00 0.16 0.00 49 1014.6
20260904191003 74 268 4.0 12.0 0.00 0.16 0.00 50 1014.5
20260904190503 74 270 5.0 12.0 0.00 0.16 0.00 48 1014.6
20260904190003 75 277 4.0 14.0 0.00 0.16 0.00 49 1014.6
20260904185503 75 270 3.0 14.0 0.00 0.16 0.00 46 1014.5
20260904185003 75 276 3.0 10.0 0.00 0.16 0.00 46 1014.7
20260904184503 75 300 3.0 10.0 0.00 0.16 0.00 47 1014.6
20260904184003 75 325 4.0 9.0 0.00 0.16 0.00 47 1014.6
20260904183503 75 323 3.0 8.0 0.00 0.16 0.00 47 1014.7
20260904183003 74 310 2.0 8.0 0.00 0.16 0.00 48 1014.7
20260904182503 74 268 3.0 7.0 0.00 0.16 0.00 48 1014.9
20260904182003 74 265 5.0 14.0 0.00 0.16 0.00 48 1014.9
20260904181503 74 264 6.0 14.0 0.00 0.16 0.00 47 1014.8
20260904181213 74 258 5.0 14.0 0.00 0.16 0.00 47 1014.9
20260904180503 75 267 4.0 11.0 0.00 0.16 0.00 49 1014.9
20260904180003 75 259 4.0 12.0 0.00 0.16 0.00 48 1015.0
20260904175503 75 263 4.0 12.0 0.00 0.16 0.00 45 1015.1
20260904175003 75 261 5.0 16.0 0.00 0.16 0.00 45 1015.1
20260904174503 75 246 5.0 16.0 0.00 0.16 0.00 41 1015.1
20260904174003 76 245 4.0 11.0 0.00 0.16 0.00 43 1015.1
20260904173503 75 255 4.0 12.0 0.00 0.16 0.00 41 1015.2
20260904173003 75 278 5.0 12.0 0.00 0.16 0.00 43 1015.2
20260904172503 75 310 5.0 13.0 0.00 0.16 0.00 41 1015.5
20260904172003 75 285 5.0 13.0 0.00 0.16 0.00 42 1015.4
20260904171503 74 258 5.0 14.0 0.00 0.16 0.00 44 1015.4
20260904171003 74 264 6.0 14.0 0.00 0.16 0.00 43 1015.4
20260904170713 74 270 6.0 14.0 0.00 0.16 0.00 44 1015.4
20260904170003 74 307 4.0 10.0 0.00 0.16 0.00 41 1015.5
20260904165503 75 320 3.0 10.0 0.00 0.16 0.00 40 1015.5
20260904165003 75 319 3.0 9.0 0.00 0.16 0.00 41 1015.5
20260904164503 75 286 4.0 9.0 0.00 0.16 0.00 40 1015.5
20260904164003 74 275 4.0 12.0 0.00 0.16 0.00 43 1015.5
20260904163503 74 274 5.0 12.0 0.00 0.16 0.00 44 1015.5
20260904163003 74 316 5.0 12.0 0.00 0.16 0.00 45 1015.5
20260904162713 73 324 5.0 12.0 0.00 0.16 0.00 45 1015.5
20260904162003 74 316 5.0 10.0 0.00 0.16 0.00 42 1015.4
20260904161504 74 319 5.0 11.0 0.00 0.16 0.00 41 1015.2
20260904161003 74 341 5.0 11.0 0.00 0.16 0.00 42 1015.3
20260904160503 74 338 4.0 10.0 0.00 0.16 0.00 43 1015.5
20260904160003 74 272 3.0 9.0 0.00 0.16 0.00 43 1015.5
20260904155503 74 250 3.0 11.0 0.00 0.16 0.00 43 1015.5
20260904155003 74 272 4.0 11.0 0.00 0.16 0.00 43 1015.5
20260904154503 74 264 4.0 10.0 0.00 0.16 0.00 42 1015.5
20260904154213 74 255 4.0 10.0 0.00 0.16 0.00 47 1015.5
20260904153712 74 347 3.0 9.0 0.00 0.16 0.00 44 1015.5
20260904153213 73 346 4.0 9.0 0.00 0.16 0.00 45 1015.5
20260904152712 72 311 4.0 9.0 0.00 0.16 0.00 45 1015.7
20260904152003 72 302 5.0 11.0 0.00 0.16 0.00 44 1015.6
20260904151503 72 298 4.0 11.0 0.00 0.16 0.00 46 1015.6
20260904151003 73 310 4.0 11.0 0.00 0.16 0.00 45 1015.4
20260904150503 73 337 3.0 9.0 0.00 0.16 0.00 44 1015.4
20260904150003 73 352 3.0 9.0 0.00 0.16 0.00 47 1015.2
20260904145712 73 345 3.0 11.0 0.00 0.16 0.00 47 1015.1
20260904145213 73 344 4.0 12.0 0.00 0.16 0.00 46 1015.2
20260904144503 73 359 2.0 10.0 0.00 0.16 0.00 46 1015.4
20260904144003 72 49 2.0 7.0 0.00 0.16 0.00 47 1015.2
20260904143714 72 70 3.0 7.0 0.00 0.16 0.00 46 1015.2
20260904143003 72 74 3.0 6.0 0.00 0.16 0.00 52 1015.3
20260904142714 71 47 2.0 6.0 0.00 0.16 0.00 52 1015.2
20260904142003 70 282 2.0 7.0 0.00 0.16 0.00 49 1015.4
20260904141503 70 270 3.0 7.0 0.00 0.16 0.00 46 1015.4
20260904141213 70 261 2.0 7.0 0.00 0.16 0.00 46 1015.4
20260904140503 72 99 1.0 4.0 0.00 0.16 0.00 45 1015.6
20260904140003 72 73 2.0 5.0 0.00 0.16 0.00 48 1015.7
20260904135503 72 82 2.0 5.0 0.00 0.16 0.00 51 1015.5
20260904135003 71 97 2.0 6.0 0.00 0.16 0.00 52 1015.4
20260904134714 72 91 2.0 6.0 0.00 0.16 0.00 52 1015.2
20260904134003 71 76 2.0 5.0 0.00 0.16 0.00 53 1015.3
20260904133503 71 60 2.0 5.0 0.00 0.16 0.00 54 1015.5
20260904133003 70 60 2.0 5.0 0.00 0.16 0.00 53 1015.3
20260904132503 70 82 2.0 6.0 0.00 0.16 0.00 55 1015.6
20260904132003 69 85 1.0 6.0 0.00 0.16 0.00 56 1015.7
20260904131503 69 78 0.0 4.0 0.00 0.16 0.00 57 1015.7
20260904131003 68 88 0.0 3.0 0.00 0.16 0.00 57 1015.6
20260904130714 68 89 1.0 3.0 0.00 0.16 0.00 57 1015.6